Sussex, NJ

1:44 AM EST on November 18, 2019 (GMT -0500)
Sussex

Weather History for KFWN - September, 2019

Change the Weather History Date:

Thursday, September 26, 2019

  Actual Average Record
Temperature  
Mean Temperature 62 °F -  
Max Temperature 75 °F 68 °F 88 °F (2007)
Min Temperature 48 °F 42 °F 29 °F (1963)
Degree Days  
Heating Degree Days 4    
Growing Degree Days 12 (Base 50)    
Moisture  
Dew Point 56 °F    
Average Humidity 89    
Maximum Humidity 97    
Minimum Humidity 60    
Precipitation  
Precipitation 0.10 in - - ()
Sea Level Pressure  
Sea Level Pressure 29.86 in    
Wind  
Wind Speed 1 mph ()    
Max Wind Speed 7 mph    
Max Gust Speed -    
Visibility 5.3 miles    
Events Fog , Rain    
Averages and records for this station are not official NWS values.
T = Trace of Precipitation, MM = Missing Value Source: Averaged Metar Reports

Daily Weather History Graph

Daily Weather History Graph

Search for Another Location

Airport or City:

Astronomy

Sep. 26, 2019 Rise Set
Actual Time 6:49 AM EDT 6:49 PM EDT
Civil Twilight 6:22 AM EDT 7:16 PM EDT
Nautical Twilight 5:50 AM EDT 7:48 PM EDT
Astronomical Twilight 5:17 AM EDT 8:21 PM EDT
Moon 3:50 AM EDT (9/26) 6:02 PM EDT (9/26)
Length of Visible Light 12h 54m
Length of Day
11h 59m
Waning Crescent, 7% of the Moon is Illuminated
Sep 26
Waning Crescent
Sep 28
New
Oct 5
First Quarter
Oct 13
Full
Oct 21
Last Quarter

Hourly Weather History & Observations

Time (EDT) Temp. Dew Point Humidity Pressure Visibility Wind Dir Wind Speed Gust Speed Precip Events Conditions
12:53 AM 52.0 °F 48.9 °F 89% 29.86 in 10.0 mi Calm Calm - N/A   Clear
1:53 AM 50.0 °F 48.0 °F 93% 29.86 in 9.0 mi Calm Calm - N/A   Clear
2:53 AM 48.9 °F 46.9 °F 93% 29.85 in 9.0 mi Calm Calm - N/A   Clear
3:53 AM 48.9 °F 48.0 °F 97% 29.84 in 10.0 mi Calm Calm - N/A   Clear
4:53 AM 50.0 °F 48.0 °F 93% 29.83 in 10.0 mi SW 3.5 mph - N/A   Clear
5:53 AM 48.0 °F 46.0 °F 93% 29.83 in 10.0 mi SW 3.5 mph - N/A   Clear
6:53 AM 48.0 °F 46.9 °F 96% 29.83 in 9.0 mi Calm Calm - N/A   Clear
7:53 AM 52.0 °F 50.0 °F 93% 29.83 in 10.0 mi SW 3.5 mph - 0.00 in   Clear
8:53 AM 61.0 °F 55.0 °F 81% 29.81 in 10.0 mi Calm Calm - N/A   Partly Cloudy
9:53 AM 64.0 °F 55.9 °F 75% 29.81 in 10.0 mi SW 4.6 mph - N/A   Mostly Cloudy
10:53 AM 69.1 °F 59.0 °F 70% 29.79 in 10.0 mi Variable 4.6 mph - N/A   Overcast
11:53 AM 73.0 °F 60.1 °F 64% 29.76 in 10.0 mi SSW 6.9 mph - N/A   Mostly Cloudy
12:53 PM 75.0 °F 60.1 °F 60% 29.77 in 10.0 mi Variable 3.5 mph - N/A   Overcast
1:53 PM 70.0 °F 59.0 °F 68% 29.79 in 10.0 mi Variable 5.8 mph - 0.00 in Rain Light Rain
2:53 PM 66.9 °F 62.1 °F 84% 29.81 in 10.0 mi North 4.6 mph - 0.02 in Rain Light Rain
3:53 PM 64.9 °F 60.1 °F 84% 29.81 in 9.0 mi Variable 3.5 mph - 0.03 in Rain Light Rain
4:32 PM 64.0 °F 61.0 °F 90% 29.82 in 2.5 mi Calm Calm - 0.04 in Rain Light Rain
4:39 PM 64.0 °F 61.0 °F 90% 29.82 in 7.0 mi ENE 3.5 mph - 0.04 in Rain Light Rain
4:53 PM 64.0 °F 61.0 °F 90% 29.82 in 10.0 mi SE 3.5 mph - 0.04 in Rain Light Rain
5:53 PM 66.0 °F 60.1 °F 81% 29.82 in 10.0 mi Calm Calm - 0.00 in   Clear
6:53 PM 61.0 °F 59.0 °F 93% 29.86 in 1.8 mi Calm Calm - N/A   Partly Cloudy
7:00 PM 61.0 °F 59.0 °F 93% 29.85 in 0.8 mi Calm Calm - N/A   Partly Cloudy
7:04 PM 61.0 °F 59.0 °F 93% 29.85 in 0.8 mi Calm Calm - N/A   Mist
7:10 PM 61.0 °F 59.0 °F 93% 29.86 in 1.5 mi Calm Calm - N/A   Partly Cloudy
7:12 PM 61.0 °F 59.0 °F 93% 29.86 in 1.0 mi Calm Calm - N/A   Mist
7:19 PM 60.1 °F 59.0 °F 96% 29.86 in 0.2 mi Calm Calm - N/A Fog Fog
7:53 PM 57.9 °F 57.0 °F 97% 29.88 in 0.2 mi Calm Calm - 0.00 in Fog , Rain Light Rain
8:13 PM 57.9 °F 57.0 °F 97% 29.90 in 1.0 mi Calm Calm - 0.00 in   Scattered Clouds
8:16 PM 57.9 °F 55.9 °F 93% 29.90 in 2.5 mi Calm Calm - 0.00 in   Scattered Clouds
8:23 PM 57.9 °F 55.9 °F 93% 29.90 in 1.2 mi Calm Calm - 0.01 in   Partly Cloudy
8:26 PM 57.0 °F 55.9 °F 96% 29.90 in 0.8 mi Calm Calm - 0.01 in   Mist
8:35 PM 57.0 °F 55.9 °F 96% 29.91 in 2.0 mi Calm Calm - 0.01 in   Clear
8:38 PM 57.0 °F 55.9 °F 96% 29.91 in 1.2 mi Calm Calm - 0.01 in   Clear
8:45 PM 57.0 °F 55.0 °F 93% 29.91 in 0.5 mi SW 3.5 mph - 0.01 in Fog Fog
8:53 PM 57.0 °F 55.0 °F 93% 29.92 in 0.5 mi Calm Calm - 0.01 in Fog Fog
9:53 PM 57.0 °F 55.9 °F 96% 29.95 in 0.2 mi Calm Calm - N/A Fog Fog
10:53 PM 55.0 °F 54.0 °F 96% 29.96 in 0.2 mi Calm Calm - N/A Fog Fog
11:53 PM 55.0 °F 54.0 °F 96% 29.98 in 0.2 mi Calm Calm - N/A Fog Fog